Flag for Israel Weather past 2 weeks in Ashkelon, Israel

Now
55 °F

Clear.


Feels Like: 55 °F
Forecast: 69 / 81 °F
Wind: 1 mph from North

Location: Ben Gurion International Airport

Current Time: Apr 27, 2015 at 5:22:02 AM

Latest Report: Apr 27, 2015 at 4:50 AM


Visibility: 10 mi

Pressure: 29.89 "Hg

Humidity: 77%

Dew point: 48 °F

Location of AshkelonLocation

Historic Weather in Ashkelon — Graph

°F

Ashkelon temperature yesterday

Maximum temperature yesterday: 79 °F (at 1:50 PM)
Minimum temperature yesterday: 54 °F (at 3:50 AM)
Average temperature yesterday: 67 °F

Past Weeks' High & Low Weather Summary

 TemperatureHumidityPressure
High90 °F (Apr 20, 1:20 PM)94% (Apr 12, 6:20 AM)30.30 "Hg (Apr 12, 6:20 AM)
Low46 °F (Apr 12, 1:50 PM)12% (Apr 20, 3:50 PM)29.83 "Hg (Apr 15, 1:20 PM)
Average64 °F63%30.06 "Hg
* Reported Apr 12 4:20 AM — Apr 27 4:20 AM, Ashkelon, Weather by CustomWeather, © 2015

Note: Actual official high and low records may vary slightly from our data, if they occured in-between our weather recording intervals... More about our weather records

Advertising

Ashkelon weather history for previous 24 hours

 ConditionsComfort  
Time TempWeatherWind HumidityBarometerVisibility
4:20 AM
Mon, Apr 27
57 °FClear.2 mph72%29.89 "Hg10 mi
3:50 AM59 °FClear.3 mph68%29.89 "Hg10 mi
3:20 AM61 °FClear.5 mph68%29.92 "Hg10 mi
2:50 AM61 °FClear.3 mph68%29.92 "Hg10 mi
2:20 AM61 °FClear.3 mph68%29.92 "Hg10 mi
1:50 AM61 °FClear.2 mph68%29.92 "Hg10 mi
1:20 AM61 °FClear.2 mph68%29.92 "Hg10 mi
12:50 AM61 °FClear.2 mph68%29.92 "Hg10 mi
12:20 AM63 °FClear.6 mph59%29.92 "Hg10 mi
11:50 PM
Sun, Apr 26
63 °FClear.1 mph59%29.95 "Hg10 mi
11:20 PM63 °FClear.1 mph59%29.95 "Hg10 mi
10:50 PM63 °FClear.3 mph59%29.95 "Hg10 mi
10:20 PM64 °FClear.1 mph56%29.95 "Hg10 mi
9:50 PM68 °FClear.1 mph49%29.95 "Hg10 mi
9:20 PM68 °FClear.3 mph49%29.95 "Hg10 mi
8:50 PM68 °FClear.2 mph53%29.95 "Hg10 mi
8:20 PM72 °FClear.1 mph44%29.95 "Hg10 mi
7:50 PM72 °FSunny.5 mph41%29.95 "Hg10 mi
7:20 PM72 °FSunny.6 mph41%29.95 "Hg10 mi
6:50 PM73 °FSunny.7 mph38%29.95 "Hg10 mi
6:20 PM73 °FSunny.8 mph47%29.95 "Hg10 mi
5:50 PM75 °FSunny.10 mph44%29.92 "Hg10 mi
5:20 PM77 °FSunny.10 mph39%29.92 "Hg10 mi
4:50 PM77 °FSunny.8 mph39%29.92 "Hg10 mi
4:20 PM77 °FSunny.12 mph42%29.92 "Hg10 mi
3:50 PM75 °FSunny.13 mph54%29.92 "Hg10 mi
3:20 PM75 °FSunny.13 mph54%29.92 "Hg10 mi
2:50 PM77 °FSunny.12 mph54%29.95 "Hg10 mi
2:20 PM79 °FSunny.7 mph48%29.95 "Hg10 mi
1:50 PM79 °FPassing clouds.5 mph48%29.95 "HgN/A
1:20 PM77 °FSunny.5 mph51%29.98 "Hg10 mi
12:50 PM75 °FPassing clouds.7 mph54%29.98 "HgN/A
12:20 PM75 °FPassing clouds.9 mph57%29.98 "HgN/A
11:50 AM75 °FSunny.9 mph57%30.01 "Hg10 mi
11:20 AM77 °FPassing clouds.6 mph39%30.01 "HgN/A
10:50 AM75 °FSunny.3 mph44%30.01 "Hg10 mi
10:20 AM73 °FSunny.2 mph47%30.01 "Hg10 mi
9:50 AM72 °FSunny.2 mph53%30.01 "Hg10 mi
9:20 AM68 °FSunny.1 mph60%30.01 "Hg10 mi
8:50 AM64 °FSunny.2 mph68%30.01 "Hg10 mi
8:20 AM63 °FSunny.5 mph73%30.01 "Hg10 mi
7:50 AM61 °FSunny.3 mph72%30.01 "Hg10 mi
7:20 AM59 °FSunny.2 mph72%30.01 "Hg10 mi
6:50 AM55 °FClear.2 mph77%30.01 "Hg10 mi
6:20 AM54 °FClear.2 mph82%30.01 "Hg10 mi
5:50 AM55 °FClear.3 mph77%30.01 "Hg10 mi
5:20 AM55 °FClear.8 mph77%30.01 "Hg10 mi
Weather by CustomWeather, © 2015

See weather overviewHow to use our weather pages